sat.trackr.live / text

‹ back to catalog

STARLINK-2475

NORAD 48133 · 2021-027AT

PAYLOAD ACTIVE UNKNOWN

§ Identity

Operator
Country
US
Launch date
2021-04-07
Launch site
AFETR
Launch vehicle
Mass (kg)
RCS (m²)

Purposes: comms

External: N2YO · Heavens-Above · Gunter

§ Orbital elements

Epoch: 2026-09-19T20:03:18.241056Z

Period
94.01 min
Inclination
53.1596°
Eccentricity
0.0001177
Mean motion
15.31698043 rev/d
Perigee alt
469.9 km
Apogee alt
471.6 km
Semi-major
6,848.9 km
B*
1.1266e-4
RAAN
341.8684°
Arg perigee
73.0794°
Mean anomaly
287.0337°
Rev number
30,226

§ Raw data

STARLINK-24751 48133U 21027AT  26262.83562779  .00003132  00000+0  11266-3 0  99932 48133  53.1596 341.8684 0001177  73.0794 287.0337 15.31698043302263

JSON: /api/v1/satellites/48133 · /tle

For live sub-satellite position, see the globe view (requires WebGL).

§ Visibility from observer

Set your observer location to see the next 7 days of passes ≥ 10°. The values pass through the URL so the page stays shareable.

No JS? Fill the form by hand. The geolocation button needs JavaScript.